RH
68 69 84 86 91 91 88 75 81 70 72 56 47 47 58 66 72 74 75 72 69 68 68 70 70 66 63 63 63 64 63 63 65 69 72 75 77 79 79 78 77 75 74 74
82 73 72 78 84 91 85 75 85 75 74 52 43 48 57 64 74 75 72 70 70 69 68 69 70 67 65 64 64 65 65 68 70 71 75 80 84 86 86 85 84 83 83 85
74 70 66 69 73 86 84 82 80 88 62 51 46 50 52 57 70 68 65 64 64 64 64 66 69 67 66 68 68 68 69 71 74 74 74 80 90 95 94 92 95 92 88 85
93 71 76 45 58 64 74 72 74 68 53 47 44 41 38 45 51 56 57 58 59 59 62 66 69 70 71 70 71 71 73 75 76 76 78 85 99 100 100 98 93 90 87 84
90 88 65 57 65 70 75 64 66 68 60 49 50 50 46 40 43 43 46 50 52 53 56 64 68 70 72 73 74 75 78 78 78 80 83 90 99 100 99 96 92 89 89 88
91 89 75 52 64 57 57 80 57 65 63 58 63 70 63 45 41 39 39 41 42 49 57 65 69 72 73 74 75 77 81 81 83 84 87 93 99 98 97 98 96 95 90 83
79 88 78 56 56 60 82 67 62 59 62 58 74 58 53 56 50 49 51 54 58 63 66 68 71 72 73 75 76 82 85 85 86 88 90 95 96 92 96 99 96 88 46 20
81 91 86 47 60 69 60 66 66 62 59 54 59 61 64 64 63 65 65 63 63 66 68 70 71 73 74 76 82 87 89 87 90 92 94 94 94 93 97 94 77 28 20 16
74 75 49 45 58 54 58 64 66 65 64 57 63 65 66 68 68 68 69 68 69 70 71 72 74 75 78 82 87 89 88 89 92 96 96 94 92 92 92 73 26 23 19 14
63 52 54 49 51 56 64 63 64 64 64 63 64 66 68 68 67 67 69 70 72 73 72 74 75 77 81 87 90 91 91 91 93 97 97 96 94 94 84 33 26 20 15 13
69 60 53 48 53 58 59 61 64 64 65 71 74 76 73 78 80 74 70 72 74 74 76 78 78 79 82 86 88 88 90 91 96 100 96 92 92 87 44 31 24 18 15 14
71 55 54 53 53 59 60 63 68 70 66 65 66 67 68 68 68 70 73 74 75 77 83 82 79 81 83 85 87 87 87 89 96 100 92 91 91 70 32 26 21 19 17 13
55 53 57 61 62 65 68 67 66 65 64 64 66 68 70 72 75 76 77 78 77 78 82 85 84 82 82 84 86 88 89 90 98 99 90 90 85 48 26 23 21 17 15 12
55 56 65 65 68 72 71 71 70 68 69 69 70 70 70 73 76 79 83 85 83 83 86 88 87 84 83 86 90 97 94 97 100 97 89 90 74 37 29 25 22 18 16 14
66 65 65 62 71 74 75 74 74 75 74 73 73 72 73 75 78 82 86 88 88 86 87 91 88 84 83 83 86 91 93 99 100 96 92 91 64 35 32 29 23 20 19 16
66 71 72 70 76 79 79 79 79 77 77 78 78 78 75 72 74 79 83 86 90 90 91 95 94 90 89 85 86 85 87 93 100 100 98 97 70 36 33 32 28 24 20 18
77 79 79 79 81 83 83 84 84 84 85 84 83 84 84 81 77 78 82 85 86 87 91 91 91 94 93 92 88 89 86 94 98 100 99 96 83 41 30 31 31 29 24 24
82 81 82 82 83 86 88 88 88 87 86 86 87 87 87 87 86 89 93 92 88 87 88 89 92 93 93 93 93 88 88 92 100 99 99 95 92 70 41 32 30 30 30 32
91 87 87 86 85 84 82 84 86 88 87 87 85 86 89 91 88 85 93 95 91 87 85 92 94 91 92 93 96 98 92 91 98 99 97 96 97 93 73 43 30 28 28 31
98 96 88 85 86 88 89 89 87 80 81 88 91 93 94 94 93 90 87 92 92 92 93 92 94 97 96 96 100 100 100 100 100 96 100 100 99 96 90 78 50 32 28 27
99 93 71 50 38 35 34 32 29 26 33 45 56 72 93 98 98 98 97 97 98 97 100 100 100 100 100 100 100 100 100 100 100 99 99 100 100 100 100 100 97 72 43 31
99 99 98 96 64 23 22 22 21 23 25 29 35 43 51 66 81 94 100 100 99 98 97 98 99 100 100 100 100 100 100 100 100 100 100 100 100 100 100 100 100 100 99 64
99 98 72 35 26 20 20 19 19 21 24 28 28 27 29 37 57 64 77 90 95 97 98 97 97 98 99 100 100 100 100 100 100 100 100 100 100 100 100 99 99 100 100 99
59 54 45 39 29 27 21 18 17 19 24 28 30 31 30 28 33 55 60 70 79 82 92 97 97 97 99 98 98 99 99 100 100 100 100 99 99 99 99 99 99 99 99 99
75 56 56 54 46 36 28 22 19 18 22 28 32 34 38 41 38 35 37 38 41 42 52 72 84 97 98 97 98 98 98 98 98 98 98 98 98 98 98 98 98 98 98 98
87 96 98 96 77 50 36 25 20 18 18 21 26 32 35 38 38 38 39 41 41 41 41 42 51 70 82 95 97 97 97 97 97 97 97 97 97 97 97 97 97 97 97 97
84 94 96 94 78 52 40 23 18 19 21 23 23 29 33 36 37 40 42 42 42 42 43 43 43 44 49 69 89 98 97 97 97 97 97 97 97 97 97 97 97 97 97 97
Wind_Speed
2 1 2 2 5 10 9 8 8 2 9 11 8 7 9 14 20 23 23 23 21 19 17 15 13 11 10 9 8 7 7 7 8 9 9 9 10 10 10 11 11 11 10 11
1 3 2 3 7 10 13 10 7 11 12 6 12 6 6 15 21 25 25 24 22 19 17 17 15 12 11 11 10 9 8 8 8 9 9 9 10 10 10 9 10 10 10 10
2 0 0 5 7 12 7 5 12 9 14 5 2 5 13 18 24 27 26 24 22 21 19 17 16 14 13 12 12 11 10 9 10 10 11 11 10 10 11 10 10 9 8 8
2 1 1 4 1 5 10 4 11 8 4 5 6 9 14 19 25 26 25 23 22 20 18 17 17 16 15 14 13 12 12 11 11 11 11 10 9 9 9 10 9 9 9 10
2 1 6 2 1 3 5 5 11 14 14 6 4 3 9 17 21 21 19 19 19 18 17 17 18 17 16 15 14 13 13 13 12 11 11 10 10 10 10 10 10 12 12 12
1 2 3 2 3 3 3 4 2 7 9 7 6 2 4 13 17 15 14 15 16 17 18 18 18 18 17 16 15 14 13 12 12 11 11 10 10 11 12 12 13 13 14 14
3 2 6 5 3 5 3 4 7 6 9 9 5 6 1 8 10 10 10 10 12 14 15 15 16 16 17 16 15 13 14 13 13 12 10 10 11 13 15 15 15 15 14 12
3 1 6 3 2 3 4 3 4 5 2 11 8 3 1 3 3 4 5 7 8 10 12 14 14 14 15 16 14 14 14 14 14 12 12 12 14 16 17 17 16 15 12 9
6 5 5 4 5 4 4 0 1 4 4 5 3 2 1 1 2 3 5 6 8 9 11 12 12 14 15 14 15 14 15 14 13 13 12 13 16 18 20 18 16 13 10 8
1 2 4 7 7 5 3 2 1 3 6 7 7 5 3 3 4 4 5 7 8 10 10 11 12 14 14 14 15 15 16 15 14 14 14 16 18 19 17 17 15 12 9 7
3 6 7 10 8 6 4 3 3 4 4 3 1 2 4 5 9 11 8 8 10 10 10 10 12 14 14 15 16 17 17 16 16 15 16 18 20 18 17 14 12 10 9 8
4 3 3 5 4 7 5 5 4 2 2 1 1 3 5 6 8 9 10 9 11 12 12 11 12 13 15 16 17 18 19 19 18 18 18 21 20 20 18 17 15 12 11 9
4 7 6 5 1 5 6 6 3 2 1 2 3 5 6 7 7 9 9 10 11 11 11 13 12 13 13 15 17 20 21 21 20 21 21 23 22 21 18 17 15 13 11 10
12 6 4 5 1 5 5 5 3 1 2 3 5 7 8 9 9 9 8 8 9 11 12 13 14 13 12 14 15 16 20 20 20 21 23 23 21 19 18 18 15 14 13 12
11 8 6 3 5 6 6 5 3 3 3 4 5 6 8 10 10 10 10 10 11 12 12 12 13 12 12 13 13 14 18 21 21 21 22 23 21 20 20 19 19 17 16 15
7 7 7 4 5 5 4 4 5 5 6 7 7 9 10 13 15 14 13 13 13 13 12 13 13 11 13 14 13 13 16 19 20 22 23 25 24 24 23 23 21 20 20 17
3 3 4 4 3 3 3 4 5 7 9 11 13 13 14 15 17 17 16 16 16 15 14 15 13 12 13 14 15 14 16 19 23 24 26 27 26 26 25 24 23 23 21 18
4 3 3 3 3 4 4 6 9 10 12 13 13 14 15 15 17 20 17 14 16 17 16 15 13 14 15 15 17 18 18 20 24 27 27 28 27 27 27 27 27 26 23 21
2 1 1 1 2 4 5 6 7 8 9 11 12 14 14 14 15 15 16 16 15 16 14 15 14 15 16 16 17 19 21 22 26 28 28 29 29 30 29 29 29 28 25 24
2 2 2 2 3 2 2 3 5 7 9 11 12 12 12 12 13 13 14 15 15 16 16 15 15 16 16 18 19 21 22 24 25 29 32 32 32 33 32 31 31 31 29 28
4 6 5 4 5 5 6 6 7 9 10 11 12 13 13 13 13 14 14 13 12 15 16 16 15 16 18 20 21 23 24 26 27 30 33 34 35 37 36 36 35 34 32 31
2 1 0 2 5 8 7 8 9 10 11 11 12 12 13 13 13 12 12 12 13 14 15 16 18 18 20 21 24 25 26 27 28 29 31 33 36 36 37 38 39 37 36 33
1 2 4 5 7 8 8 10 11 12 12 12 13 13 14 14 16 16 13 13 15 15 15 16 16 17 18 20 22 24 25 26 27 29 31 33 35 36 36 36 35 36 36 38
4 4 5 6 8 9 10 11 12 13 13 13 14 15 16 16 11 12 15 16 16 16 16 16 16 16 16 18 20 22 24 25 26 28 29 30 31 31 32 33 33 33 33 33
7 8 9 9 9 10 12 13 13 14 13 13 14 14 14 16 17 17 17 17 17 18 17 16 16 16 16 15 16 19 21 23 24 25 26 27 28 29 29 29 29 30 30 31
10 10 11 11 10 11 13 15 15 15 15 15 13 15 14 15 16 18 18 18 18 18 19 18 17 17 16 16 16 16 17 19 20 21 22 24 24 25 25 26 26 26 27 27
12 11 12 10 9 11 14 16 15 14 15 17 17 17 17 17 18 19 18 19 19 19 19 19 19 19 18 18 17 17 17 17 17 18 19 20 21 21 21 22 22 22 23 23
Wind_Direction
345 171 115 182 190 192 198 195 192 208 220 248 266 274 241 209 196 189 191 192 199 202 205 209 212 212 215 222 235 251 264 274 274 268 267 262 258 251 249 246 246 246 244 245
19 139 190 257 222 204 218 230 258 256 281 220 277 267 205 205 198 197 200 205 207 209 215 221 221 222 228 234 244 251 258 264 269 270 267 265 257 249 243 242 241 240 236 235
259 116 228 285 214 195 205 197 213 219 244 252 267 216 229 209 207 207 211 214 216 220 222 225 226 229 233 236 239 246 253 260 261 261 268 265 257 249 238 231 224 220 216 213
135 34 246 245 147 193 210 212 216 256 237 210 231 262 251 227 215 218 224 226 226 229 229 227 225 228 230 236 242 246 250 251 255 260 266 260 249 242 230 218 211 204 191 180
120 204 295 23 281 143 165 280 211 231 244 216 269 277 256 229 225 228 232 237 240 239 236 232 231 233 235 238 240 244 244 244 247 256 262 252 241 229 214 205 189 180 170 160
128 137 241 240 297 171 151 303 307 228 246 180 152 189 255 210 211 218 236 235 232 235 232 229 230 231 234 239 244 247 243 242 247 253 255 247 231 212 201 189 179 169 161 157
183 261 288 256 276 125 81 251 331 307 246 186 177 209 273 186 193 213 228 232 232 230 232 232 229 232 235 239 247 244 240 242 247 247 244 236 217 202 193 184 176 168 166 163
109 220 276 207 114 164 229 306 317 7 195 198 203 186 164 161 191 214 228 232 226 221 222 224 228 234 241 248 244 238 234 242 245 242 237 224 207 194 188 180 176 175 173 171
173 212 250 253 238 302 284 222 22 42 87 156 184 250 280 277 259 253 247 245 240 227 223 228 234 241 244 243 238 236 241 243 243 238 231 218 202 192 184 181 182 182 183 185
102 261 250 276 255 252 192 188 118 122 115 100 87 72 53 22 354 330 284 259 245 239 240 244 252 250 245 237 236 238 240 240 240 236 225 209 194 189 191 190 190 192 196 201
266 280 278 272 236 215 207 181 148 128 121 120 149 195 274 270 296 311 300 269 252 249 251 259 263 254 243 238 239 242 242 241 238 229 222 202 193 195 193 194 200 206 211 219
235 275 231 288 279 220 204 178 163 150 121 53 339 311 298 297 291 285 286 279 265 254 255 259 263 258 246 243 244 243 241 238 233 225 215 199 198 198 199 202 209 214 221 227
280 315 265 299 205 200 198 174 161 144 85 2 340 332 327 321 313 306 290 286 280 273 261 257 262 263 255 250 248 247 241 236 231 225 212 205 204 206 209 216 222 223 228 233
311 285 259 221 240 202 198 187 186 197 332 333 329 323 320 319 316 313 305 289 278 267 261 261 263 268 265 258 262 248 231 229 229 227 215 210 212 214 218 225 230 233 235 239
272 245 253 269 218 201 202 208 233 282 307 315 321 328 328 326 320 313 302 288 279 272 265 265 270 277 271 268 268 248 231 222 219 220 216 215 217 220 225 229 231 234 238 241
301 249 244 233 205 204 219 249 281 291 295 296 296 301 307 309 309 305 301 295 285 282 282 280 276 277 272 266 268 253 237 227 224 224 217 218 221 225 228 232 235 238 241 243
228 231 210 198 207 226 254 277 287 291 295 297 299 303 306 305 304 301 292 284 281 279 274 269 276 269 263 265 262 259 241 232 230 230 223 224 228 232 236 239 242 245 247 246
221 223 223 227 234 258 279 294 299 301 301 303 303 303 304 302 303 304 298 291 280 274 276 278 272 266 265 262 264 259 250 238 234 235 231 231 235 238 241 244 246 247 248 247
145 168 225 256 285 292 300 306 314 319 321 321 316 312 309 305 299 297 297 294 295 287 279 271 270 263 260 263 262 261 256 247 239 240 239 239 241 243 245 247 250 252 252 250
125 120 101 82 64 44 16 354 346 335 332 333 334 333 327 318 310 305 299 295 298 295 289 278 263 260 260 255 257 258 257 253 248 246 246 243 244 246 248 250 251 252 252 251
136 104 85 63 35 8 352 343 337 332 329 328 328 329 336 338 333 324 317 311 295 288 285 283 278 270 265 262 256 255 257 257 253 250 249 251 251 250 252 253 252 252 253 252
119 111 148 53 10 349 347 345 344 342 339 337 334 331 330 329 329 334 329 319 318 311 303 293 282 275 271 266 261 256 255 256 257 256 256 256 257 258 259 260 259 258 253 250
40 51 24 335 341 343 344 345 344 342 340 339 339 339 339 341 336 331 328 324 323 324 320 311 302 291 278 271 265 262 258 257 258 261 261 262 263 265 267 268 268 266 263 257
315 319 322 327 332 335 338 337 334 334 335 335 335 335 334 335 343 331 327 326 324 321 321 321 318 309 295 283 271 267 263 261 262 263 264 266 267 267 268 268 267 265 264 261
293 304 308 311 315 322 327 329 330 328 328 328 326 327 328 328 329 331 330 329 327 323 322 321 318 317 315 305 292 280 273 271 269 269 268 267 268 268 269 268 267 266 265 263
286 301 305 304 307 317 322 324 325 325 324 322 322 320 320 321 322 321 321 322 323 323 322 320 319 319 315 310 306 298 289 281 276 273 271 270 269 269 270 269 268 266 264 261
273 292 299 296 307 318 321 319 320 322 319 318 318 320 319 321 322 321 322 321 321 320 320 320 318 316 313 311 308 303 298 289 282 278 273 271 270 269 270 270 269 267 264 257